Location: Center Berlin
(42.6609°N, 73.3687°W)
Time: 20:54:37
(UTC+00:00)

Cosmos 841 Rocket - Pass Details

Date: 10 September 2024
Orbit: 745 x 768 km, 74.0° (Epoch: 13 October)

Event Time Altitude Azimuth Distance (km) Brightness Sun altitude
Rises 23:36:10 0° 199° (SSW) 3,207 6.8 -5.4°
Reaches altitude 10° 23:38:32 10° 200° (SSW) 2,282 6.1 -5.8°
Maximum altitude 23:43:43 87° 289° (WNW) 762 3.6 -6.7°
Drops below altitude 10° 23:48:55 10° 20° (NNE) 2,282 5.9 -7.7°
Sets 23:51:17 0° 20° (NNE) 3,208 6.7 -8.1°
